Overview Statistics Trail Chart Weather Telemetry Raw packets
 

This is the latest recevied weather packets stored in our database for station/object KQ4LLM. If no packets are shown the sender has not sent any weather packets the latest 10 day(s).

<< 20 21 22 23 24 25 26 >>
Time Temp. Humidity Pressure Rain* Wind** Luminosity Snow
1788547741 35° C 55% - 0 mm - - -
1788547436 34.44° C 55% - 0 mm - - -
1788547131 34.44° C 56% - 0 mm - - -
1788546826 33.89° C 57% - 0 mm - - -
1788546522 34.44° C 56% - 0 mm - - -
1788546216 34.44° C 56% - 0 mm - - -
1788545912 34.44° C 56% - 0 mm - - -
1788545612 34.44° C 56% - 0 mm - - -
1788545307 33.89° C 56% - 0 mm - - -
1788545003 33.33° C 58% - 0 mm - - -
1788544702 32.78° C 61% - 0 mm - - -
1788544401 32.78° C 62% - 0 mm - - -
1788544095 33.89° C 59% - 0 mm - - -
1788543792 33.89° C 58% - 0 mm - - -
1788543487 33.89° C 58% - 0 mm - - -
1788543182 33.89° C 58% - 0 mm - - -
1788542878 33.89° C 58% - 0 mm - - -
1788542576 33.33° C 59% - 0 mm - - -
1788542272 33.33° C 60% - 0 mm - - -
1788541967 33.33° C 60% - 0 mm - - -
1788541663 33.89° C 61% - 0 mm - - -
1788541359 33.33° C 61% - 0 mm - - -
1788541058 33.33° C 61% - 0 mm - - -
1788540752 33.33° C 60% - 0 mm - - -
1788540452 33.33° C 61% - 0 mm - - -

* Rain latest hour (hover to see other rain measurements)
** Current wind speed in m/s (hover to see current wind gust speed)